Home   Weather   Pyatigorsk   Past weeks

Flag for Russia Past Weather in Pyatigorsk, Russia — Yesterday and Last 2 Weeks

Now
57 °F

Clear.


Feels Like: 55 °F
Forecast: 48 / 71 °F
Wind: 8 mph from West

Location: Mineral'Nye Vody

Current Time: May 27, 2017 at 10:40:10 pm

Latest Report: May 27, 2017 at 10:00 pm


Visibility: N/A

Pressure: 29.89 "Hg (28.05 "Hg at 533m altitude)

Humidity: 82%

Dew Point: 52 °F

Location of PyatigorskLocation

Past Weather in Pyatigorsk — Graph

°F

Pyatigorsk Temperature Yesterday

Maximum temperature yesterday: 70 °F (at 2:30 pm)
Minimum temperature yesterday: 41 °F (at 3:30 am)
Average temperature yesterday: 56 °F

High & Low Weather Summary for the Past Weeks

 TemperatureHumidityPressure
High75 °F (May 27, 2:00 pm)100% (May 15, 4:00 am)30.15 "Hg (May 15, 4:00 am)
Low41 °F (May 26, 3:30 am)41% (May 27, 1:30 pm)29.74 "Hg (May 20, 9:00 am)
Average57 °F83%29.94 "Hg
* Reported May 12 9:00 pm — May 27 9:30 pm, Pyatigorsk. Weather by CustomWeather, © 2017

Note: Actual official high and low records may vary slightly from our data, if they occured in-between our weather recording intervals... More about our weather records

Advertising

Pyatigorsk Weather History for the Previous 24 Hours

Scroll right to see more
 ConditionsComfort  
Time TempWeatherWind HumidityBarometerVisibility
9:30 pm
Sat, May 27
59 °FClear.6 mph77%29.89 "HgN/A
8:30 pm61 °FClear.6 mph72%29.89 "HgN/A
8:00 pm64 °FClear.6 mph64%29.89 "HgN/A
7:30 pm64 °FClear.6 mph64%29.89 "HgN/A
7:00 pm66 °FClear.6 mph64%29.89 "HgN/A
6:30 pm66 °FPassing clouds.6 mph64%29.89 "HgN/A
6:00 pm68 °FClear.10 mph64%29.86 "HgN/A
5:30 pm68 °FScattered clouds.6 mph64%29.86 "HgN/A
5:00 pm68 °FScattered clouds.8 mph60%29.89 "HgN/A
4:30 pm70 °FScattered clouds.13 mph57%29.89 "HgN/A
4:00 pm70 °FClear.10 mph57%29.89 "HgN/A
3:30 pm72 °FClear.10 mph53%29.89 "HgN/A
3:00 pm72 °FClear.10 mph50%29.86 "HgN/A
2:30 pm72 °FClear.13 mph47%29.86 "HgN/A
2:00 pm75 °FClear.10 mph41%29.86 "HgN/A
1:30 pm73 °FClear.13 mph41%29.86 "HgN/A
1:00 pm72 °FClear.10 mph44%29.86 "HgN/A
12:30 pm73 °FClear.10 mph44%29.86 "HgN/A
12:00 pm72 °FClear.13 mph44%29.86 "HgN/A
11:30 am72 °FClear.15 mph47%29.86 "HgN/A
11:00 am72 °FClear.15 mph47%29.86 "HgN/A
10:30 am72 °FClear.15 mph47%29.89 "HgN/A
9:30 am70 °FClear.13 mph53%29.89 "HgN/A
9:00 am68 °FClear.10 mph60%29.89 "HgN/A
8:30 am66 °FClear.8 mph64%29.89 "HgN/A
8:00 am63 °FClear.8 mph68%29.89 "HgN/A
7:30 am61 °FClear.6 mph72%29.89 "HgN/A
7:00 am57 °FClear.3 mph82%29.92 "HgN/A
6:30 am55 °FClear.No wind82%29.92 "HgN/A
6:00 am50 °FClear.1 mph94%29.92 "HgN/A
5:30 am48 °FClear.1 mph94%29.92 "Hg4 mi
5:00 am46 °FClear.No wind100%29.92 "Hg5 mi
4:30 am46 °FClear.1 mph100%29.92 "Hg6 mi
4:00 am46 °FClear.No wind100%29.92 "Hg5 mi
3:30 am48 °FClear.3 mph94%29.92 "Hg5 mi
3:00 am48 °FClear.3 mph94%29.92 "HgN/A
2:30 am48 °FClear.1 mph94%29.92 "HgN/A
2:00 am48 °FClear.No wind94%29.92 "HgN/A
1:30 am52 °FClear.1 mph88%29.92 "HgN/A
1:00 am50 °FClear.1 mph94%29.92 "HgN/A
12:30 am52 °FClear.1 mph94%29.92 "HgN/A
12:00 am52 °FClear.3 mph94%29.92 "HgN/A
11:30 pm
Fri, May 26
52 °FClear.3 mph94%29.92 "HgN/A
11:00 pm54 °FClear.1 mph82%29.95 "HgN/A
10:30 pm54 °FClear.1 mph88%29.95 "HgN/A
Weather by CustomWeather, © 2017

See weather overviewHow to use our weather pages